Plymouth, NH

10:59 AM EDT on June 23, 2018 (GMT -0400)
Plymouth

Weather History for K1P1 - November, 2016

Change the Weather History Date:

Saturday, November 12, 2016

  Actual Average (KLCI) Record (KLCI)
Temperature  
Mean Temperature 38 °F -  
Max Temperature 44 °F 47 °F 66 °F (2012)
Min Temperature 31 °F 33 °F 19 °F (1999)
Degree Days  
Heating Degree Days 28    
Moisture  
Dew Point 20 °F    
Average Humidity 50    
Maximum Humidity 58    
Minimum Humidity 37    
Precipitation  
Precipitation 0.00 in - - ()
Sea Level Pressure  
Sea Level Pressure 30.09 in    
Wind  
Wind Speed 9 mph (WNW)    
Max Wind Speed 16 mph    
Max Gust Speed 30 mph    
Visibility 10 miles    
Events      
Averages and records for this station are not official NWS values.
T = Trace of Precipitation, MM = Missing Value Source: NWS Daily Summary

Daily Weather History Graph

Daily Weather History Graph

Search for Another Location

Airport or City:

Astronomy

Nov. 12, 2016 Rise Set
Actual Time 6:38 AM EST 4:23 PM EST
Civil Twilight 6:07 AM EST 4:54 PM EST
Nautical Twilight 5:32 AM EST 5:29 PM EST
Astronomical Twilight 4:58 AM EST 6:03 PM EST
Moon 3:35 PM EST (11/12) 3:50 AM EST (11/12)
Length of Visible Light 10h 47m
Length of Day
9h 45m
Waxing Gibbous, 95% of the Moon is Illuminated
Nov 12
Waxing Gibbous
Nov 14
Full
Nov 21
Last Quarter
Nov 29
New
Dec 7
First Quarter

Hourly Weather History & Observations

Time (EST) Temp. Windchill Dew Point Humidity Pressure Visibility Wind Dir Wind Speed Gust Speed Precip Events Conditions
12:15 AM 33.4 °F 24.8 °F 16.2 °F 49% 30.06 in 10.0 mi WNW 11.5 mph 19.6 mph N/A   Scattered Clouds
12:35 AM 33.4 °F 24.8 °F 16.0 °F 49% 30.07 in 10.0 mi WNW 11.5 mph 29.9 mph N/A   Scattered Clouds
12:55 AM 33.3 °F 25.1 °F 15.8 °F 49% 30.08 in 10.0 mi NNW 10.4 mph 26.5 mph N/A   Mostly Cloudy
1:15 AM 33.1 °F 27.7 °F 16.3 °F 50% 30.09 in 10.0 mi NW 5.8 mph - N/A   Mostly Cloudy
1:35 AM 32.9 °F 25.3 °F 16.3 °F 51% 30.10 in 10.0 mi North 9.2 mph - N/A   Mostly Cloudy
1:55 AM 32.9 °F 25.9 °F 16.3 °F 51% 30.10 in 10.0 mi NW 8.1 mph 17.3 mph N/A   Mostly Cloudy
2:15 AM 32.5 °F 25.5 °F 16.9 °F 53% 30.11 in 10.0 mi NNW 8.1 mph 16.1 mph N/A   Scattered Clouds
2:35 AM 32.2 °F 25.0 °F 16.7 °F 53% 30.11 in 10.0 mi NW 8.1 mph - N/A   Scattered Clouds
2:55 AM 32.0 °F 26.4 °F 17.2 °F 55% 30.11 in 10.0 mi WNW 5.8 mph - N/A   Scattered Clouds
3:15 AM 32.0 °F 26.4 °F 17.2 °F 55% 30.12 in 10.0 mi NW 5.8 mph 18.4 mph N/A   Scattered Clouds
3:35 AM 32.0 °F 25.6 °F 17.4 °F 55% 30.13 in 10.0 mi WNW 6.9 mph - N/A   Scattered Clouds
3:55 AM 32.0 °F 26.4 °F 17.8 °F 56% 30.14 in 10.0 mi West 5.8 mph - N/A   Scattered Clouds
4:15 AM 32.0 °F 23.6 °F 17.6 °F 55% 30.14 in 10.0 mi West 10.4 mph - N/A   Scattered Clouds
4:35 AM 32.0 °F 21.6 °F 17.6 °F 55% 30.14 in 10.0 mi WNW 15.0 mph 21.9 mph N/A   Clear
4:55 AM 32.0 °F 22.1 °F 17.2 °F 55% 30.14 in 10.0 mi NW 13.8 mph 28.8 mph N/A   Clear
5:15 AM 31.8 °F 22.8 °F 18.0 °F 57% 30.14 in 10.0 mi WNW 11.5 mph - N/A   Clear
5:35 AM 31.5 °F 21.8 °F 18.0 °F 57% 30.14 in 10.0 mi WNW 12.7 mph - N/A   Clear
5:55 AM 31.6 °F 22.1 °F 18.0 °F 57% 30.15 in 10.0 mi WNW 12.7 mph - N/A   Clear
6:15 AM 31.5 °F 20.9 °F 18.1 °F 58% 30.16 in 10.0 mi WNW 15.0 mph 21.9 mph N/A   Clear
6:35 AM 31.8 °F 21.8 °F 18.0 °F 57% 30.16 in 10.0 mi WNW 13.8 mph 23.0 mph N/A   Clear
6:55 AM 31.8 °F 27.3 °F 18.0 °F 57% 30.17 in 10.0 mi NW 4.6 mph 19.6 mph N/A   Clear
7:15 AM 32.0 °F 24.8 °F 18.1 °F 57% 30.17 in 10.0 mi WNW 8.1 mph 17.3 mph N/A   Clear
7:35 AM 32.4 °F 24.6 °F 18.5 °F 57% 30.18 in 10.0 mi WNW 9.2 mph 17.3 mph N/A   Clear
7:55 AM 32.9 °F 26.7 °F 18.7 °F 56% 30.19 in 10.0 mi WNW 6.9 mph 16.1 mph N/A   Clear
8:15 AM 33.4 °F 24.8 °F 18.3 °F 54% 30.19 in 10.0 mi West 11.5 mph 20.7 mph N/A   Clear
9:35 AM 36.1 °F 26.9 °F 18.3 °F 48% 30.20 in 10.0 mi West 15.0 mph 25.3 mph N/A   Clear
9:55 AM 36.9 °F 28.7 °F 19.4 °F 49% 30.21 in 10.0 mi West 12.7 mph 19.6 mph N/A   Clear
10:15 AM 37.0 °F 28.1 °F 19.4 °F 49% 30.20 in 10.0 mi West 15.0 mph 20.7 mph N/A   Clear
10:35 AM 37.4 °F 28.2 °F 19.9 °F 49% 30.20 in 10.0 mi WNW 16.1 mph 21.9 mph N/A   Clear
10:55 AM 38.1 °F 31.2 °F 20.5 °F 49% 30.19 in 10.0 mi West 10.4 mph 20.7 mph N/A   Clear
11:15 AM 38.7 °F 32.4 °F 21.0 °F 49% 30.18 in 10.0 mi West 9.2 mph 20.7 mph N/A   Clear
11:35 AM 39.4 °F 31.4 °F 20.7 °F 47% 30.17 in 10.0 mi West 13.8 mph 18.4 mph N/A   Clear
11:55 AM 40.1 °F 34.1 °F 20.5 °F 45% 30.16 in 10.0 mi West 9.2 mph 18.4 mph N/A   Clear
12:15 PM 41.0 °F 35.2 °F 20.3 °F 44% 30.15 in 10.0 mi West 9.2 mph 17.3 mph N/A   Clear
12:35 PM 41.4 °F 35.7 °F 21.0 °F 44% 30.14 in 10.0 mi West 9.2 mph 17.3 mph N/A   Clear
12:55 PM 42.1 °F 37.1 °F 20.7 °F 42% 30.13 in 10.0 mi WNW 8.1 mph 16.1 mph N/A   Clear
1:15 PM 42.8 °F 38.0 °F 20.8 °F 42% 30.12 in 10.0 mi WNW 8.1 mph - N/A   Clear
1:35 PM 43.7 °F 39.7 °F 21.2 °F 41% 30.11 in 10.0 mi West 6.9 mph - N/A   Clear
1:55 PM 43.9 °F 39.3 °F 22.1 °F 42% 30.10 in 10.0 mi WNW 8.1 mph - N/A   Clear
2:15 PM 44.1 °F 40.8 °F 21.0 °F 40% 30.09 in 10.0 mi West 5.8 mph - N/A   Clear
2:35 PM 44.6 °F 39.7 °F 19.8 °F 37% 30.09 in 10.0 mi West 9.2 mph - N/A   Clear
2:55 PM 44.6 °F 40.2 °F 19.8 °F 37% 30.09 in 10.0 mi West 8.1 mph 18.4 mph N/A   Clear
3:15 PM 44.1 °F 38.6 °F 19.0 °F 37% 30.08 in 10.0 mi West 10.4 mph - N/A   Clear
3:35 PM 43.0 °F 37.7 °F 18.5 °F 37% 30.08 in 10.0 mi West 9.2 mph - N/A   Clear
3:55 PM 42.3 °F 35.9 °F 18.5 °F 39% 30.07 in 10.0 mi West 11.5 mph 16.1 mph N/A   Clear
4:15 PM 41.4 °F 37.6 °F 19.4 °F 41% 30.06 in 10.0 mi West 5.8 mph - N/A   Clear
4:35 PM 41.0 °F 37.1 °F 19.4 °F 42% 30.05 in 10.0 mi West 5.8 mph - N/A   Clear
4:55 PM 41.2 °F 37.3 °F 19.9 °F 43% 30.05 in 10.0 mi WNW 5.8 mph - N/A   Clear
5:15 PM 40.5 °F 38.4 °F 20.1 °F 44% 30.04 in 10.0 mi WNW 3.5 mph - N/A   Clear
5:35 PM 39.0 °F 36.8 °F 20.7 °F 48% 30.05 in 10.0 mi WNW 3.5 mph - N/A   Clear
5:55 PM 39.2 °F 35.9 °F 20.3 °F 47% 30.05 in 10.0 mi West 4.6 mph - N/A   Clear
6:15 PM 39.4 °F 37.2 °F 20.7 °F 47% 30.04 in 10.0 mi WNW 3.5 mph - N/A   Clear
6:35 PM 37.8 °F - 21.2 °F 51% 30.04 in 10.0 mi Calm Calm - N/A   Clear
6:55 PM 37.6 °F 35.1 °F 21.0 °F 51% 30.04 in 10.0 mi West 3.5 mph - N/A   Clear
7:15 PM 37.4 °F 31.4 °F 21.6 °F 53% 30.04 in 10.0 mi WNW 8.1 mph - N/A   Clear
7:35 PM 37.8 °F 31.8 °F 21.4 °F 52% 30.03 in 10.0 mi NW 8.1 mph - N/A   Clear
7:55 PM 38.1 °F 33.7 °F 21.2 °F 51% 30.03 in 10.0 mi WNW 5.8 mph - N/A   Clear
8:15 PM 37.4 °F 33.8 °F 22.1 °F 54% 30.02 in 10.0 mi WNW 4.6 mph - N/A   Clear
8:35 PM 37.6 °F 32.3 °F 22.5 °F 54% 30.02 in 10.0 mi WNW 6.9 mph - N/A   Clear
8:55 PM 37.8 °F 33.3 °F 22.8 °F 55% 30.01 in 10.0 mi NW 5.8 mph - N/A   Clear
9:15 PM 38.3 °F 33.9 °F 23.0 °F 54% 30.01 in 10.0 mi NW 5.8 mph - N/A   Clear
9:35 PM 37.8 °F 34.2 °F 23.7 °F 57% 30.00 in 10.0 mi WNW 4.6 mph - N/A   Clear
9:55 PM 38.3 °F 33.9 °F 23.9 °F 56% 29.99 in 10.0 mi WNW 5.8 mph - N/A   Clear
10:15 PM 38.5 °F 36.1 °F 24.3 °F 57% 29.99 in 10.0 mi NW 3.5 mph - N/A   Clear
10:35 PM 39.2 °F 37.0 °F 23.9 °F 54% 29.99 in 10.0 mi NNW 3.5 mph - N/A   Clear
10:55 PM 39.4 °F 36.1 °F 24.1 °F 54% 29.97 in 10.0 mi NW 4.6 mph - N/A   Clear
11:15 PM 39.2 °F 35.9 °F 24.4 °F 56% 29.96 in 10.0 mi NNW 4.6 mph - N/A   Clear
11:35 PM 39.4 °F 37.2 °F 24.8 °F 56% 29.97 in 10.0 mi NNW 3.5 mph - N/A   Clear
11:55 PM 40.1 °F - 24.8 °F 54% 29.96 in 10.0 mi Calm Calm - N/A   Clear